Location: Home
(42.5358°N, 72.7383°W)
Time: 07:06:52
(UTC-05:00)

Courier 1B Rocket - Pass Details

Date: 06 December 2021
Orbit: 920 x 1202 km, 28.2° (Epoch: 25 January)

Event Time Altitude Azimuth Distance (km) Brightness Sun altitude
Rises 22:24:57 0° 238° (WSW) 3,702 - -64.4°
Reaches altitude 10° 22:28:18 10° 223° (SW) 2,707 - -64.8°
Maximum altitude 22:33:02 21° 176° (S) 1,957 - -65.4°
Drops below altitude 10° 22:37:38 10° 129° (SE) 2,619 - -66.0°
Sets 22:40:49 0° 114° (ESE) 3,549 - -66.3°
